Rocky Mount, NC

4:04 PM EDT on May 23, 2017 (GMT -0400)
Rocky Mount-Wilson Regional

Weather History for KRWI - October, 2014

Change the Weather History Date:

Tuesday, October 21, 2014

  Actual Average Record
Temperature  
Mean Temperature 64 °F -  
Max Temperature 75 °F 70 °F 85 °F (1984)
Min Temperature 52 °F 45 °F 29 °F (1972)
Degree Days  
Heating Degree Days 2    
Growing Degree Days 14 (Base 50)    
Moisture  
Dew Point 52 °F    
Average Humidity 72    
Maximum Humidity 97    
Minimum Humidity 40    
Precipitation  
Precipitation 0.00 in - - ()
Sea Level Pressure  
Sea Level Pressure 29.90 in    
Wind  
Wind Speed 3 mph (West)    
Max Wind Speed 14 mph    
Max Gust Speed 22 mph    
Visibility 9 miles    
Events      
Averages and records for this station are not official NWS values.
T = Trace of Precipitation, MM = Missing Value Source: NWS Daily Summary

Daily Weather History Graph

Daily Weather History Graph

Search for Another Location

Airport or City:

Trip Planner

Search our weather history database for the weather conditions in past years. The results will help you decide how hot, cold, wet, or windy it might be!

Date:

Astronomy

Oct. 21, 2014 Rise Set
Actual Time 7:23 AM EDT 6:28 PM EDT
Civil Twilight 6:57 AM EDT 6:54 PM EDT
Nautical Twilight 6:27 AM EDT 7:24 PM EDT
Astronomical Twilight 5:58 AM EDT 7:53 PM EDT
Moon 5:10 AM EDT (10/21) 5:17 PM EDT (10/21)
Length of Visible Light 11h 56m
Length of Day
11h 04m
Waning Crescent, 5% of the Moon is Illuminated
Oct 21
Waning Crescent
Oct 23
New
Oct 30
First Quarter
Nov 6
Full
Nov 14
Last Quarter

Hourly Weather History & Observations

Time (EDT) Temp. Dew Point Humidity Pressure Visibility Wind Dir Wind Speed Gust Speed Precip Events Conditions
12:53 AM 55.0 °F 53.1 °F 93% 29.97 in 10.0 mi Calm Calm - N/A   Clear
1:53 AM 55.0 °F 53.1 °F 93% 29.96 in 10.0 mi Calm Calm - N/A   Clear
2:53 AM 55.9 °F 54.0 °F 93% 29.94 in 10.0 mi Calm Calm - N/A   Clear
3:53 AM 57.0 °F 55.0 °F 93% 29.92 in 10.0 mi South 3.5 mph - N/A   Mostly Cloudy
4:53 AM 59.0 °F 55.9 °F 90% 29.91 in 10.0 mi WSW 3.5 mph - N/A   Overcast
5:53 AM 55.0 °F 53.1 °F 93% 29.91 in 9.0 mi Calm Calm - N/A   Scattered Clouds
6:53 AM 53.1 °F 52.0 °F 96% 29.92 in 7.0 mi Calm Calm - N/A   Partly Cloudy
7:36 AM 52.0 °F 51.1 °F 97% 29.92 in 2.5 mi Calm Calm - N/A   Partly Cloudy
7:46 AM 52.0 °F 51.1 °F 97% 29.93 in 5.0 mi Calm Calm - N/A   Scattered Clouds
7:53 AM 52.0 °F 51.1 °F 97% 29.93 in 6.0 mi Calm Calm - N/A   Scattered Clouds
8:53 AM 59.0 °F 55.9 °F 90% 29.94 in 10.0 mi SSW 3.5 mph - N/A   Partly Cloudy
9:53 AM 64.0 °F 54.0 °F 70% 29.93 in 10.0 mi WSW 4.6 mph - N/A   Partly Cloudy
10:53 AM 66.9 °F 54.0 °F 63% 29.92 in 10.0 mi WNW 4.6 mph - N/A   Clear
11:53 AM 70.0 °F 52.0 °F 53% 29.90 in 10.0 mi Variable 4.6 mph - N/A   Clear
12:53 PM 72.0 °F 50.0 °F 46% 29.88 in 10.0 mi West 5.8 mph - N/A   Clear
1:53 PM 73.9 °F 50.0 °F 43% 29.85 in 10.0 mi West 8.1 mph - N/A   Clear
2:53 PM 75.0 °F 48.9 °F 40% 29.83 in 10.0 mi WSW 8.1 mph - N/A   Clear
3:53 PM 72.0 °F 48.0 °F 43% 29.83 in 10.0 mi WNW 6.9 mph - N/A   Partly Cloudy
4:53 PM 71.1 °F 50.0 °F 47% 29.83 in 10.0 mi West 3.5 mph - N/A   Overcast
5:53 PM 69.1 °F 52.0 °F 54% 29.84 in 10.0 mi WNW 3.5 mph - N/A   Overcast
6:53 PM 63.0 °F 57.0 °F 81% 29.85 in 10.0 mi Calm Calm - N/A   Overcast
7:53 PM 62.1 °F 57.0 °F 84% 29.86 in 10.0 mi Calm Calm - N/A   Overcast
8:53 PM 64.9 °F 53.1 °F 65% 29.88 in 10.0 mi NNW 12.7 mph - N/A   Overcast
9:06 PM 64.9 °F 51.1 °F 61% 29.89 in 10.0 mi NW 11.5 mph - N/A   Overcast
9:53 PM 64.0 °F 48.0 °F 56% 29.90 in 10.0 mi NW 11.5 mph - N/A   Overcast
10:53 PM 62.1 °F 46.0 °F 56% 29.91 in 10.0 mi NW 13.8 mph 21.9 mph N/A   Overcast
11:53 PM 60.1 °F 42.1 °F 51% 29.90 in 10.0 mi WNW 10.4 mph - N/A   Overcast